Weather History for Miami, FL

Change the Weather History Date:

Sunday, November 11, 2012

  Actual Average Record
Temperature  
Mean Temperature 77 °F 76 °F  
Max Temperature 82 °F 82 °F 89 °F (2002)
Min Temperature 71 °F 69 °F 48 °F (1913)
Degree Days  
Heating Degree Days 0 0  
Month to date heating degree days 1 0  
Since 1 July heating degree days 1 0  
Cooling Degree Days 12 11  
Month to date cooling degree days 73 126  
Year to date cooling degree days 4312 4198  
Growing Degree Days 26 (Base 50)    
Moisture  
Dew Point 58 °F    
Average Humidity 53    
Maximum Humidity 61    
Minimum Humidity 45    
Precipitation  
Precipitation 0.02 in 0.12 in 2.27 in (1967)
Month to date precipitation 0.02 1.44  
Year to date precipitation 85.95 58.03  
Snow  
Snow 0.00 in - - ()
Month to date snowfall 0.0  
Since 1 July snowfall 0.0  
Since 1 September snowfall 0.0  
Snow Depth 0.00 in    
Sea Level Pressure  
Sea Level Pressure 30.20 in    
Wind  
Wind Speed 13 mph (East)    
Max Wind Speed 24 mph    
Max Gust Speed 30 mph    
Visibility 10 miles    
Events Rain    
T = Trace of Precipitation, MM = Missing Value Source: NWS Daily Summary

Daily Weather History Graph

Daily Weather History Graph

Search for Another Location

Airport:

Trip Planner

Search our weather history database for the weather conditions in past years. The results will help you decide how hot, cold, wet, or windy it might be!

Date:

Astronomy

Nov. 11, 2012 Rise Set
Actual Time 6:36 AM EST 5:33 PM EST
Civil Twilight 6:12 AM EST 5:57 PM EST
Nautical Twilight 5:44 AM EST 6:25 PM EST
Astronomical Twilight 5:17 AM EST 6:52 PM EST
Moon 4:01 AM EST (11/11) 3:47 PM EST (11/11)
Length of Visible Light 11h 45m
Length of Day
10h 57m
Waning Crescent, 7% of the Moon is Illuminated
Nov 11
Waning Crescent
Nov 13
New
Nov 20
First Quarter
Nov 28
Full
Dec 6
Last Quarter

Hourly Weather History & Observations

Time (EST) Temp. Heat Index Dew Point Humidity Pressure Visibility Wind Dir Wind Speed Gust Speed Precip Events Conditions
12:53 AM 73.9 °F - 55.0 °F 52% 30.20 in 10.0 mi ENE 8.1 mph - N/A   Mostly Cloudy
1:53 AM 73.9 °F - 59.0 °F 59% 30.18 in 10.0 mi East 11.5 mph - N/A   Mostly Cloudy
2:53 AM 73.0 °F - 55.9 °F 55% 30.17 in 10.0 mi East 13.8 mph - N/A   Mostly Cloudy
3:53 AM 71.1 °F - 55.0 °F 57% 30.17 in 10.0 mi East 8.1 mph - N/A   Scattered Clouds
4:53 AM 73.9 °F - 55.9 °F 53% 30.18 in 10.0 mi East 9.2 mph 16.1 mph N/A   Mostly Cloudy
5:53 AM 73.9 °F - 57.0 °F 55% 30.19 in 10.0 mi East 9.2 mph - N/A   Mostly Cloudy
6:53 AM 73.9 °F - 59.0 °F 59% 30.20 in 10.0 mi East 8.1 mph - N/A   Scattered Clouds
7:53 AM 75.0 °F - 57.0 °F 53% 30.22 in 10.0 mi East 12.7 mph 19.6 mph N/A   Scattered Clouds
8:53 AM 79.0 °F - 57.0 °F 47% 30.23 in 10.0 mi East 19.6 mph 26.5 mph N/A   Scattered Clouds
9:53 AM 79.0 °F - 55.9 °F 45% 30.24 in 10.0 mi East 17.3 mph 24.2 mph N/A   Scattered Clouds
10:53 AM 81.0 °F 81.1 °F 57.9 °F 45% 30.23 in 10.0 mi East 18.4 mph 26.5 mph N/A   Scattered Clouds
11:53 AM 79.0 °F - 60.1 °F 52% 30.22 in 10.0 mi East 18.4 mph 27.6 mph N/A   Mostly Cloudy
12:53 PM 80.1 °F 80.6 °F 57.9 °F 47% 30.20 in 10.0 mi East 17.3 mph 26.5 mph N/A   Mostly Cloudy
1:53 PM 81.0 °F 81.1 °F 57.9 °F 45% 30.19 in 10.0 mi ENE 17.3 mph 23.0 mph N/A   Mostly Cloudy
2:53 PM 80.1 °F 80.6 °F 57.9 °F 47% 30.18 in 10.0 mi East 20.7 mph 25.3 mph N/A   Scattered Clouds
3:53 PM 78.1 °F - 59.0 °F 52% 30.18 in 10.0 mi ENE 13.8 mph 21.9 mph 0.00 in   Scattered Clouds
4:53 PM 78.1 °F - 57.9 °F 50% 30.18 in 10.0 mi ENE 9.2 mph 23.0 mph N/A   Scattered Clouds
5:53 PM 77.0 °F - 57.0 °F 50% 30.19 in 10.0 mi ENE 10.4 mph 19.6 mph N/A   Scattered Clouds
6:53 PM 75.9 °F - 59.0 °F 56% 30.19 in 10.0 mi ENE 11.5 mph - N/A   Scattered Clouds
7:53 PM 75.2 °F - 60.8 °F 61% 30.21 in 10.0 mi ENE 12.7 mph 21.9 mph N/A   Scattered Clouds
8:53 PM 75.9 °F - 60.1 °F 58% 30.20 in 10.0 mi East 11.5 mph - N/A   Scattered Clouds
9:53 PM 73.9 °F - 64.9 °F 73% 30.21 in 10.0 mi East 4.6 mph - 0.00 in Rain Light Rain
10:53 PM 73.0 °F - 64.9 °F 76% 30.21 in 10.0 mi East 16.1 mph - 0.02 in   Scattered Clouds
11:53 PM 75.0 °F - 64.0 °F 69% 30.19 in 10.0 mi East 13.8 mph - N/A   Scattered Clouds